Location: Deurze
(52.9838°N, 6.6090°E)
Time: 19:03:43
(UTC+00:00)

Cosmos 1553 Rocket - Pass Details

Date: 11 March 2026
Orbit: 942 x 1006 km, 82.9° (Epoch: 20 April)

Event Time Altitude Azimuth Distance (km) Brightness Sun altitude
Rises 18:51:33 0° 348° (NNW) 3,625 7.3 -13.0°
Reaches altitude 10° 18:54:02 10° 348° (NNW) 2,680 6.6 -13.3°
Maximum altitude 19:00:10 84° 263° (W) 967 4.0 -14.2°
Drops below altitude 10° 19:06:20 10° 175° (S) 2,697 6.1 -15.1°
Sets 19:08:51 0° 175° (S) 3,649 6.8 -15.5°
